Date,TemperatureHighF,TemperatureAvgF,TemperatureLowF,DewpointHighF,DewpointAvgF,DewpointLowF,HumidityHigh,HumidityAvg,HumidityLow,PressureMaxIn,PressureMinIn,WindSpeedMaxMPH,WindSpeedAvgMPH,GustSpeedMaxMPH,PrecipitationSumIn
2013-1-1,51.5,42.7,35.9,39.0,35.8,31.5,92,77,59,30.28,30.21,15,2,16,0.00
2013-1-2,56.9,42.4,32.1,40.7,33.1,28.9,91,72,45,30.25,30.13,6,0,6,0.00
2013-1-3,56.7,42.5,33.2,41.0,34.3,29.4,88,74,51,30.27,30.17,6,0,9,0.00
2013-1-4,58.7,44.9,35.7,42.5,36.5,31.9,92,74,49,30.30,30.18,5,0,5,0.00
2013-1-5,54.6,46.5,38.9,47.3,43.0,36.0,95,88,71,30.27,30.08,11,1,13,0.11
2013-1-6,47.1,44.6,39.7,45.6,42.7,37.8,96,93,88,30.21,30.05,11,1,13,0.05
2013-1-7,58.4,46.2,37.3,48.2,42.3,36.0,97,87,64,30.27,30.16,6,0,7,0.01
2013-1-8,62.5,49.6,41.0,50.6,43.6,39.6,100,82,55,30.24,30.13,9,1,9,0.01
2013-1-9,54.0,45.6,39.9,48.6,42.1,37.1,96,88,78,30.16,30.01,17,2,17,0.02
2013-1-10,49.7,43.2,36.5,37.8,35.4,32.2,89,75,54,30.22,30.08,19,3,19,0.02
2013-1-11,51.1,42.4,33.5,39.2,35.3,30.2,91,77,55,30.28,30.14,13,1,14,0.00
2013-1-12,49.6,40.8,34.2,35.9,29.2,21.3,92,67,33,30.27,30.14,7,1,8,0.00
2013-1-13,48.8,38.1,30.1,30.6,25.7,18.6,81,63,31,30.28,30.18,12,1,12,0.00
2013-1-14,50.0,39.6,31.2,24.9,20.6,14.9,73,48,30,30.41,30.24,13,2,13,0.00
2013-1-15,54.4,40.9,31.2,32.3,28.0,24.1,81,62,36,30.49,30.40,7,1,9,0.00
2013-1-16,57.2,42.6,31.8,37.1,31.8,28.0,89,68,38,30.45,30.26,6,0,6,0.00
2013-1-17,63.8,46.4,34.6,42.2,35.6,30.9,89,69,40,30.27,30.15,7,0,7,0.00
2013-1-18,63.5,48.0,37.1,42.7,36.9,32.5,85,67,41,30.23,30.13,11,1,11,0.00
2013-1-19,63.7,49.3,38.7,44.1,37.3,32.9,81,65,43,30.26,30.16,9,1,9,0.00
2013-1-20,64.2,48.9,38.2,42.1,35.5,31.0,76,62,34,30.24,30.13,7,1,7,0.00
2013-1-21,66.0,48.9,36.2,44.0,35.3,30.0,83,61,37,30.19,30.08,5,0,6,0.00
2013-1-22,64.0,49.8,36.8,44.5,36.9,30.8,80,63,42,30.11,30.00,6,0,7,0.00
2013-1-23,61.0,52.0,47.7,50.3,44.0,38.6,93,75,48,30.09,29.96,6,0,6,0.07
2013-1-24,53.6,51.6,49.6,52.1,50.2,48.2,96,95,93,30.19,30.06,4,0,5,0.25
2013-1-25,63.6,55.9,52.1,58.4,53.4,50.9,97,92,80,30.19,30.05,6,0,8,0.01
2013-1-26,58.1,50.5,41.7,53.0,44.8,38.1,96,82,56,30.10,30.00,21,2,21,0.00
2013-1-27,54.8,46.9,41.0,40.1,37.0,30.4,88,70,40,30.18,30.08,12,2,14,0.00
2013-1-28,56.2,46.5,38.5,43.1,38.8,33.9,90,75,52,30.31,30.17,12,1,14,0.00
2013-1-29,56.4,47.1,39.3,44.4,40.6,36.2,92,79,59,30.37,30.28,11,1,11,0.00
2013-1-30,67.2,54.7,44.9,44.7,40.5,36.2,83,61,40,30.35,30.25,12,2,12,0.00
2013-1-31,65.7,50.8,39.7,47.1,41.7,36.4,92,73,49,30.29,30.18,10,1,10,0.00
2013-2-1,68.3,52.3,40.2,50.9,43.8,37.7,94,75,48,30.22,30.11,6,0,7,0.00
2013-2-2,58.1,49.3,43.4,50.8,45.4,40.1,95,87,76,30.30,30.21,5,0,5,0.00
2013-2-3,58.4,49.3,42.0,47.2,43.8,39.4,94,82,61,30.27,30.14,11,1,11,0.00
2013-2-4,60.0,47.0,38.8,50.3,43.6,37.0,98,88,70,30.20,30.08,7,1,7,0.01
2013-2-5,55.7,48.3,39.8,46.6,43.5,37.1,93,84,68,30.18,30.08,16,2,18,0.00
2013-2-6,58.9,46.7,37.7,44.6,39.5,35.2,93,78,51,30.21,30.13,10,1,11,0.01
2013-2-7,56.1,44.8,37.5,46.2,38.4,34.3,93,80,53,30.20,30.01,14,1,16,0.04
2013-2-8,52.0,43.7,38.9,40.4,37.9,33.4,93,81,59,30.02,29.95,14,1,14,0.01
2013-2-9,57.4,45.5,34.5,34.4,30.8,27.2,82,59,32,30.11,30.00,12,1,12,0.00
2013-2-10,59.4,46.0,34.5,37.8,33.8,29.4,86,65,41,30.13,30.03,12,1,14,0.00
2013-2-11,62.2,48.1,36.9,35.9,32.3,26.1,84,59,27,30.24,30.07,13,1,13,0.00
2013-2-12,62.0,47.5,35.0,42.9,36.8,31.2,92,69,41,30.36,30.24,11,1,12,0.00
2013-2-13,65.3,49.8,37.8,44.8,39.0,34.1,89,69,39,30.35,30.22,10,1,12,0.00
2013-2-14,68.6,53.9,38.9,45.1,40.3,36.3,95,64,38,30.25,30.16,17,2,17,0.00
2013-2-15,73.1,57.2,44.1,48.3,41.8,37.8,81,59,35,30.27,30.20,8,1,8,0.00
2013-2-16,69.5,55.2,44.0,49.4,43.5,37.8,84,66,44,30.23,30.05,11,1,11,0.00
2013-2-17,64.7,50.3,42.5,47.6,43.2,38.6,95,79,46,30.08,29.97,13,1,13,0.00
2013-2-18,51.2,45.9,39.6,44.3,40.6,37.3,94,82,66,30.06,29.99,17,1,17,0.00
2013-2-19,49.2,43.1,39.8,42.6,38.3,34.3,90,83,75,30.00,29.78,18,2,19,0.33
2013-2-20,58.0,45.5,32.9,40.4,35.8,30.0,93,71,41,30.09,29.84,17,3,18,0.00
2013-2-21,58.6,46.5,36.2,40.1,35.5,32.4,93,68,39,30.19,30.07,15,2,17,0.00
2013-2-22,63.1,48.7,36.4,43.6,37.4,32.0,89,68,38,30.27,30.17,13,1,14,0.00
2013-2-23,57.8,50.1,44.1,43.9,38.8,33.1,92,67,43,30.27,30.15,22,3,22,0.00
2013-2-24,61.1,20.6,47.8,99.9,74.0,24.7,58,12,28,30.26,30.16,16,-640,16,0.00
2013-2-25,61.7,21.7,48.5,99.9,78.7,39.4,71,19,46,30.28,30.16,15,-630,15,0.00
2013-2-26,66.0,22.7,54.9,99.9,74.0,26.2,34,10,24,30.21,30.12,14,-635,15,0.00
2013-2-27,69.4,27.0,41.1,99.9,72.6,32.4,71,19,30,30.38,30.21,11,-561,12,0.00
2013-2-28,67.8,25.9,45.1,99.9,79.3,42.8,93,28,54,30.45,30.37,13,-581,14,0.00
2013-3-1,72.6,28.0,44.9,99.9,78.6,43.3,96,28,46,30.43,30.23,10,-563,10,0.00
2013-3-2,73.0,27.6,50.0,99.9,78.9,42.0,89,26,35,30.24,30.06,7,-576,7,0.00
2013-3-3,63.7,38.6,48.4,99.9,63.8,43.4,92,53,56,30.11,30.03,12,-304,13,0.01
2013-3-4,61.4,50.8,44.1,48.6,44.3,40.6,90,79,62,30.16,30.05,15,1,15,0.00
2013-3-5,58.2,49.8,44.0,44.3,42.5,40.1,90,77,55,30.08,29.87,34,4,34,0.32
2013-3-6,56.8,49.8,40.9,46.5,41.7,36.7,90,75,51,30.08,29.87,28,4,29,0.41
2013-3-7,58.3,47.4,37.9,44.0,39.2,35.0,93,76,44,30.01,29.85,12,1,13,0.40
2013-3-8,57.8,49.2,44.0,47.2,42.5,39.5,94,79,58,30.10,29.83,23,3,23,0.09
2013-3-9,65.0,51.1,41.5,43.8,40.5,37.4,91,69,37,30.31,30.09,18,2,18,0.03
2013-3-10,71.0,54.9,40.6,45.3,38.1,30.9,92,59,23,30.35,30.24,12,1,12,0.00
2013-3-11,74.6,55.7,41.0,47.2,41.3,36.3,87,62,28,30.27,30.11,12,1,12,0.00
2013-3-12,75.3,56.9,43.9,53.5,47.2,39.9,94,73,41,30.17,30.06,11,1,11,0.00
2013-3-13,78.0,61.1,46.5,57.0,50.4,44.0,95,72,41,30.17,30.06,12,1,13,0.00
2013-3-14,73.1,58.8,47.7,56.3,48.1,34.9,95,71,30,30.17,30.08,13,1,16,0.00
2013-3-15,71.3,56.1,43.9,51.4,46.0,38.8,90,71,41,30.14,30.06,11,1,12,0.00
2013-3-16,73.3,56.3,46.2,53.7,47.9,43.8,96,76,42,30.13,30.03,14,1,14,0.00
2013-3-17,69.4,54.1,41.6,47.9,42.2,35.2,91,68,30,30.16,30.04,14,2,14,0.00
2013-3-18,66.8,54.2,41.3,49.9,43.8,38.5,93,70,46,30.14,30.03,9,0,12,0.00
2013-3-19,73.3,56.1,45.5,50.9,44.3,38.6,93,68,36,30.14,30.05,14,1,14,0.09
2013-3-20,67.4,58.0,51.8,55.7,51.9,45.5,96,82,49,30.14,30.06,13,2,14,0.02
2013-3-21,65.0,53.6,42.0,49.0,42.7,37.5,86,68,43,30.14,30.01,14,2,15,0.00
2013-3-22,68.3,53.7,40.2,40.9,32.9,21.6,88,52,19,30.12,30.01,18,2,18,0.00
2013-3-23,69.0,55.8,44.6,44.3,32.0,22.0,69,44,18,30.14,30.03,14,2,14,0.00
2013-3-24,71.0,54.8,41.7,49.6,43.5,36.6,87,68,45,30.09,29.97,10,1,13,0.00
2013-3-25,60.5,51.1,42.9,48.8,44.2,39.7,90,78,63,30.03,29.96,8,1,14,0.00
2013-3-26,68.3,54.3,44.1,51.1,45.1,40.2,92,73,50,30.02,29.93,7,1,12,0.00
2013-3-27,67.9,56.4,46.3,53.5,48.9,43.2,91,77,58,30.02,29.95,13,2,15,0.00
2013-3-28,73.1,60.8,54.1,56.0,53.1,51.5,93,77,50,30.09,30.01,9,1,12,0.00
2013-3-29,78.9,63.3,52.4,56.5,53.0,49.9,94,72,38,30.08,29.99,12,1,17,0.00
2013-3-30,72.7,60.6,54.4,53.6,51.4,47.4,91,74,42,30.06,29.96,18,2,22,0.03
2013-3-31,66.7,58.6,52.8,54.0,51.4,48.7,95,79,53,30.07,29.97,16,2,16,0.09
2013-4-1,69.8,58.8,52.5,54.4,51.3,46.5,96,78,45,30.15,30.05,12,2,14,0.09
2013-4-2,71.0,57.8,47.6,54.4,50.0,44.8,93,77,51,30.19,30.08,11,1,11,0.00
2013-4-3,80.0,59.9,47.6,57.3,50.9,45.6,95,75,42,30.15,29.96,10,1,12,0.00
2013-4-4,67.4,58.2,50.9,55.8,52.4,48.3,93,82,64,30.12,30.00,16,2,17,0.10
2013-4-5,69.0,58.4,51.8,53.2,50.4,46.9,92,75,55,30.19,30.11,14,2,14,0.00
2013-4-6,67.0,57.0,49.0,55.2,50.5,45.8,92,80,62,30.20,30.13,13,1,15,0.00
2013-4-7,70.3,58.0,49.7,55.7,49.3,42.8,90,74,42,30.19,29.88,22,2,22,0.04
2013-4-8,65.1,54.3,47.2,49.9,38.7,32.8,90,58,34,30.02,29.83,26,8,33,0.04
2013-4-9,73.3,61.5,46.9,41.7,38.3,33.2,78,45,25,30.09,30.02,22,4,23,0.00
2013-4-10,85.4,68.7,52.9,52.8,46.6,38.9,82,47,29,30.17,30.05,17,2,17,0.00
2013-4-11,72.0,59.3,48.8,51.3,47.8,41.2,92,69,37,30.09,29.85,14,1,15,0.00
2013-4-12,76.0,57.8,43.7,53.4,47.0,40.8,93,71,35,29.93,29.83,13,1,14,0.00
2013-4-13,71.3,56.4,45.2,53.5,45.1,40.6,94,68,42,29.93,29.85,18,2,21,0.00
2013-4-14,70.5,55.3,42.0,46.4,41.8,35.6,89,64,35,29.94,29.87,18,2,19,0.00
2013-4-15,58.2,50.7,44.1,47.6,39.4,33.9,85,66,47,29.97,29.87,23,6,27,0.00
2013-4-16,66.3,52.4,38.7,38.4,34.7,29.2,83,54,26,30.14,29.97,19,3,19,0.00
2013-4-17,68.0,58.6,50.4,35.9,32.6,27.2,55,39,23,30.27,30.14,19,4,20,0.00
2013-4-18,76.0,60.2,43.8,47.4,37.7,32.3,69,47,23,30.27,30.18,13,2,15,0.00
2013-4-19,82.8,64.4,47.1,54.2,45.6,38.7,81,53,28,30.23,30.08,15,1,17,0.00
2013-4-20,80.2,63.5,48.6,51.6,46.3,41.3,88,58,26,30.11,29.97,14,1,16,0.00
2013-4-21,86.2,67.1,49.0,54.9,44.5,36.8,88,51,19,30.04,29.93,14,2,14,0.00
2013-4-22,87.8,70.7,56.2,54.7,45.5,36.4,71,45,17,29.97,29.83,13,2,16,0.00
2013-4-23,83.6,65.9,53.5,51.4,40.7,27.5,79,46,16,29.94,29.85,14,2,14,0.00
2013-4-24,71.2,58.4,45.6,54.1,49.1,41.4,90,73,52,29.96,29.83,12,1,12,0.00
2013-4-25,69.8,58.1,48.7,53.5,50.4,45.9,94,77,56,30.14,29.95,15,2,15,0.00
2013-4-26,70.0,59.0,52.2,55.0,50.4,47.4,87,74,58,30.23,30.13,11,2,12,0.00
2013-4-27,76.4,60.6,49.8,58.0,51.1,46.0,88,73,51,30.23,30.08,11,1,11,0.00
2013-4-28,84.8,64.6,49.1,58.1,51.7,46.9,95,67,33,30.10,29.89,10,1,11,0.00
2013-4-29,90.0,72.0,56.5,57.2,51.4,44.8,84,53,25,29.90,29.76,14,2,15,0.00
2013-4-30,82.4,66.4,51.8,54.5,48.9,39.6,91,58,25,29.85,29.78,14,2,15,0.00
2013-5-1,85.1,71.3,56.2,45.1,33.8,26.2,53,27,14,30.09,29.85,14,2,14,0.00
2013-5-2,92.4,73.0,54.6,52.1,41.5,32.4,58,36,16,30.14,30.06,14,2,16,0.00
2013-5-3,89.3,73.0,58.4,48.3,39.4,33.1,48,32,14,30.09,29.80,13,2,13,0.00
2013-5-4,88.0,69.7,54.6,55.7,45.4,37.6,72,45,20,29.80,29.55,20,1,20,0.00
2013-5-5,67.6,59.6,54.5,50.9,48.7,45.6,79,68,49,29.81,29.59,23,6,27,0.00
2013-5-6,70.3,60.7,51.2,51.9,49.7,47.1,87,68,50,29.96,29.81,18,2,20,0.00
2013-5-7,71.5,63.0,55.5,54.4,51.3,47.1,84,67,50,30.05,29.95,14,1,14,0.00
2013-5-8,67.7,58.8,52.9,54.9,51.3,47.7,84,77,62,30.16,30.04,13,2,15,0.00
2013-5-9,68.1,58.4,52.4,54.6,50.6,47.3,86,76,60,30.19,30.10,12,2,13,0.00
2013-5-10,70.8,60.0,53.2,57.3,52.7,48.8,90,78,61,30.20,30.12,10,1,12,0.00
2013-5-11,85.8,66.4,51.8,62.1,55.3,49.6,95,71,43,30.17,30.03,12,1,12,0.00
2013-5-12,80.9,66.2,52.1,63.4,55.1,48.8,90,69,52,30.14,30.04,11,1,12,0.00
2013-5-13,78.7,64.3,52.2,61.0,54.4,47.8,90,72,54,30.10,29.96,11,1,12,0.00
2013-5-14,78.5,63.1,51.0,58.3,51.3,45.6,92,67,47,30.04,29.94,14,1,14,0.00
2013-5-15,72.3,59.5,47.4,50.0,46.3,42.8,86,64,37,30.08,30.02,15,2,15,0.00
2013-5-16,70.2,59.7,52.7,57.0,50.4,46.3,85,72,53,30.06,29.98,17,2,17,0.00
2013-5-17,70.4,59.0,48.4,51.0,46.0,41.4,87,64,44,30.11,30.00,16,2,16,0.00
2013-5-18,75.6,60.9,46.0,54.1,47.7,41.3,87,64,35,30.14,30.09,14,2,14,0.00
2013-5-19,82.2,65.4,49.0,52.7,47.7,40.4,86,57,24,30.13,29.97,14,2,15,0.00
2013-5-20,88.8,69.8,52.1,55.9,45.5,34.5,81,49,15,30.00,29.92,20,2,20,0.00
2013-5-21,74.0,59.2,50.7,53.5,45.6,35.1,87,63,26,30.01,29.93,21,4,21,0.00
2013-5-22,67.6,54.9,48.6,42.0,35.6,25.4,76,51,21,30.02,29.94,18,5,19,0.00
2013-5-23,68.6,56.1,46.5,47.8,41.6,36.9,79,60,40,30.02,29.95,16,4,18,0.00
2013-5-24,72.8,57.2,43.5,50.3,42.3,35.0,83,59,38,30.02,29.95,16,2,17,0.00
2013-5-25,69.4,57.1,45.4,48.0,44.8,41.0,87,65,40,30.09,29.99,16,2,16,0.00
2013-5-26,73.3,61.6,51.7,54.5,50.3,46.3,84,68,44,30.15,30.06,17,2,17,0.00
2013-5-27,65.5,58.5,49.2,56.3,51.4,45.7,89,78,65,30.15,30.01,10,1,12,0.00
2013-5-28,72.3,62.8,55.8,59.0,54.6,48.8,92,76,52,30.01,29.92,13,1,15,0.01
2013-5-29,72.0,61.7,53.3,57.7,50.2,43.3,83,67,43,29.98,29.91,18,2,18,0.00
2013-5-30,76.5,61.5,46.1,52.7,46.7,40.9,86,61,37,30.00,29.94,13,1,13,0.00
2013-5-31,87.8,67.9,48.7,55.4,48.7,42.1,86,55,23,30.02,29.91,12,1,14,0.00
2013-6-1,93.7,72.5,53.4,58.4,52.9,47.0,89,56,22,29.94,29.77,13,1,13,0.00
2013-6-2,81.3,65.6,53.9,59.7,54.3,49.6,90,69,45,29.80,29.67,13,1,13,0.00
2013-6-3,79.0,64.0,50.2,59.2,53.4,47.1,91,71,48,29.86,29.72,12,1,13,0.00
2013-6-4,74.2,63.2,54.2,58.9,54.6,51.2,91,75,57,29.97,29.85,12,1,12,0.00
2013-6-5,72.2,62.5,56.2,57.5,54.3,52.0,87,75,58,29.99,29.91,12,2,13,0.00
2013-6-6,78.0,64.6,55.6,60.0,55.3,51.2,88,73,53,29.96,29.85,11,1,12,0.00
2013-6-7,90.5,72.1,56.4,65.0,58.6,52.5,89,66,42,29.90,29.72,10,1,12,0.00
2013-6-8,92.0,74.5,59.5,67.0,59.2,50.7,84,61,41,29.79,29.68,10,1,11,0.00
2013-6-9,80.0,66.7,58.9,60.5,56.7,51.3,90,72,48,29.88,29.78,15,2,15,0.00
2013-6-10,74.3,63.6,55.0,55.6,52.6,48.3,83,69,50,29.94,29.84,18,3,20,0.00
2013-6-11,72.8,63.9,57.6,58.9,55.7,52.4,87,76,61,29.98,29.90,11,1,13,0.00
2013-6-12,78.3,64.9,49.7,57.7,48.2,37.3,85,58,28,30.03,29.91,14,2,15,0.00
2013-6-13,79.5,64.3,47.9,53.1,46.2,39.0,82,55,25,30.09,30.00,14,2,15,0.00
2013-6-14,87.8,68.5,52.4,55.5,49.0,41.3,88,56,22,30.00,29.82,17,2,17,0.00
2013-6-15,75.8,61.9,50.9,57.5,52.2,46.2,88,72,52,30.02,29.84,13,1,13,0.00
2013-6-16,79.0,65.0,49.5,57.6,52.0,46.0,91,66,41,30.10,30.01,16,2,16,0.00
2013-6-17,77.2,63.9,51.5,58.9,53.1,47.3,89,69,49,30.10,30.04,17,2,17,0.00
2013-6-18,70.3,60.7,52.1,52.8,49.2,45.3,90,68,43,30.06,30.01,20,3,20,0.00
2013-6-19,74.4,62.1,49.4,53.0,47.0,42.5,82,59,39,30.06,30.00,18,3,20,0.00
2013-6-20,80.3,64.0,48.8,53.8,46.5,37.6,83,56,23,30.03,29.94,15,2,16,0.00
2013-6-21,82.5,65.0,49.5,55.5,50.3,43.3,82,61,34,29.99,29.92,15,2,15,0.00
2013-6-22,85.5,68.6,51.5,57.5,51.5,41.6,87,59,25,29.94,29.86,13,2,14,0.00
2013-6-23,73.0,64.3,55.8,62.2,57.5,52.0,91,79,64,29.90,29.82,9,1,9,0.00
2013-6-24,71.3,64.5,60.2,61.9,59.7,57.2,95,85,70,29.91,29.79,11,1,15,0.03
2013-6-25,79.3,68.2,60.9,65.7,60.8,56.3,87,78,62,29.99,29.89,16,2,16,0.00
2013-6-26,83.0,72.1,65.1,67.6,63.5,60.4,90,76,59,30.05,29.96,15,2,15,0.00
2013-6-27,87.8,74.0,59.4,66.1,60.8,56.4,93,67,39,30.07,30.00,13,1,13,0.00
2013-6-28,96.5,78.3,60.7,67.9,61.4,53.6,82,59,35,30.03,29.88,12,1,15,0.00
2013-6-29,98.6,80.7,64.5,64.2,58.4,52.0,68,49,27,29.93,29.79,12,1,13,0.00
2013-6-30,90.5,75.8,61.6,67.0,60.5,54.0,81,61,41,29.84,29.76,10,1,11,0.00
2013-7-1,94.8,76.6,60.2,66.3,60.6,55.1,85,61,38,29.84,29.79,11,1,11,0.00
2013-7-2,99.2,77.8,65.1,69.6,63.4,59.8,85,64,34,29.91,29.80,10,1,10,0.00
2013-7-3,95.0,76.1,62.4,68.6,62.9,59.3,91,67,38,29.91,29.74,10,1,11,0.00
2013-7-4,96.0,79.2,67.2,69.6,63.9,59.1,82,62,40,29.78,29.68,10,1,11,0.00
2013-7-5,79.7,67.9,58.3,60.7,56.4,53.1,84,68,50,29.80,29.71,11,2,12,0.00
2013-7-6,80.7,65.8,53.2,60.1,55.1,49.9,92,71,41,29.80,29.72,13,2,13,0.00
2013-7-7,81.6,65.7,52.9,61.3,55.5,49.8,92,72,48,29.86,29.76,11,1,11,0.00
2013-7-8,84.8,68.2,55.8,61.7,56.8,50.0,88,69,44,29.97,29.86,11,1,11,0.00
2013-7-9,90.0,71.6,54.9,64.4,57.5,48.8,91,64,36,30.02,29.91,12,1,12,0.00
2013-7-10,82.4,67.6,57.5,62.8,57.9,53.9,92,73,50,29.98,29.89,12,1,12,0.00
2013-7-11,78.5,65.4,58.2,60.3,56.4,53.6,89,74,53,29.94,29.88,12,2,13,0.00
2013-7-12,79.3,65.5,54.2,61.0,55.4,50.6,90,72,50,29.93,29.88,14,1,14,0.00
2013-7-13,84.0,67.7,51.2,62.0,54.6,42.8,86,65,40,29.96,29.89,12,1,12,0.00
2013-7-14,79.5,65.0,53.2,61.4,56.0,50.0,92,74,52,29.99,29.89,12,1,13,0.00
2013-7-15,74.5,63.7,56.6,58.7,55.3,51.6,89,75,57,29.93,29.83,10,2,12,0.00
2013-7-16,72.5,62.9,53.4,57.6,54.1,49.9,89,74,56,30.04,29.86,12,2,14,0.00
2013-7-17,75.0,64.8,58.6,60.1,56.0,53.1,88,74,59,30.09,30.03,11,1,11,0.00
2013-7-18,83.1,67.2,56.3,63.5,56.8,53.0,90,72,40,30.07,29.94,11,1,12,0.00
2013-7-19,84.3,67.2,56.2,63.6,57.3,52.8,92,73,48,29.96,29.82,13,1,13,0.00
2013-7-20,86.2,68.1,57.4,64.0,58.0,54.1,91,73,47,29.87,29.72,10,1,10,0.00
2013-7-21,83.9,67.9,55.7,63.3,57.6,51.8,89,72,49,29.88,29.76,10,1,11,0.00
2013-7-22,78.5,67.4,58.7,63.3,59.4,56.2,92,77,54,29.95,29.87,9,1,9,0.00
2013-7-23,82.7,70.4,61.9,64.6,60.7,58.4,90,73,51,29.99,29.94,12,2,12,0.00
2013-7-24,87.6,71.7,58.3,64.0,59.3,54.7,92,68,43,29.98,29.89,12,1,12,0.00
2013-7-25,83.1,69.4,57.3,63.7,58.8,54.2,92,71,51,30.03,29.92,11,1,11,0.00
2013-7-26,82.8,68.0,57.7,64.0,58.9,54.6,92,75,52,30.09,29.99,10,1,11,0.00
2013-7-27,80.8,67.5,59.0,63.3,58.9,55.1,91,76,52,30.04,29.84,12,1,13,0.00
2013-7-28,82.0,66.5,57.1,62.4,57.6,53.4,89,75,50,29.89,29.80,12,1,12,0.00
2013-7-29,83.8,64.9,53.2,59.8,55.1,49.7,92,73,40,30.01,29.84,11,1,13,0.00
2013-7-30,78.5,64.8,54.7,60.7,55.8,51.4,90,74,52,30.09,30.00,12,1,13,0.00
2013-7-31,79.9,65.2,57.1,60.7,55.3,51.4,90,72,46,30.08,30.02,13,1,13,0.00
2013-8-1,74.0,62.9,50.9,57.3,52.7,46.6,88,71,54,30.08,29.98,15,1,15,0.00
2013-8-2,79.5,63.7,50.3,60.8,53.8,45.6,90,72,51,29.98,29.90,13,1,14,0.00
2013-8-3,80.8,64.6,54.2,60.6,55.4,50.1,89,74,48,29.98,29.89,12,1,12,0.00
2013-8-4,75.7,63.6,56.7,60.2,55.8,52.3,89,77,56,30.02,29.94,13,2,15,0.00
2013-8-5,75.3,63.5,57.3,60.0,55.9,53.4,88,77,59,30.02,29.94,13,2,13,0.00
2013-8-6,74.8,63.6,57.5,59.7,56.0,53.3,89,77,59,30.05,29.97,12,1,13,0.00
2013-8-7,75.0,65.3,59.1,59.0,55.9,53.1,87,73,56,30.09,30.02,14,2,14,0.00
2013-8-8,75.1,64.6,58.4,60.3,56.7,53.8,86,76,59,30.04,29.93,12,2,13,0.00
2013-8-9,73.2,64.1,57.6,60.4,56.0,51.8,87,76,60,30.00,29.92,13,2,13,0.00
2013-8-10,76.0,64.7,58.6,61.3,57.9,55.1,89,80,60,30.05,29.99,13,2,13,0.00
2013-8-11,75.4,65.6,59.1,61.5,58.3,55.6,90,78,61,30.03,29.94,11,2,11,0.00
2013-8-12,81.8,66.9,56.6,63.3,57.7,54.1,94,75,51,29.99,29.93,11,1,13,0.00
2013-8-13,87.6,68.6,54.3,60.7,55.9,51.1,94,68,33,29.99,29.90,12,1,12,0.00
2013-8-14,82.0,67.0,53.1,62.3,57.1,48.5,89,72,50,29.99,29.92,14,1,14,0.00
2013-8-15,81.8,70.7,61.7,67.7,63.1,57.8,90,78,59,29.97,29.91,12,2,13,0.00
2013-8-16,84.2,70.4,61.4,67.3,62.7,58.2,96,79,52,29.99,29.93,12,1,13,0.00
2013-8-17,78.0,66.2,56.2,63.4,58.2,50.7,90,77,53,29.99,29.89,9,1,9,0.00
2013-8-18,94.5,76.6,54.8,65.8,60.2,48.7,89,60,37,29.90,29.75,11,1,11,0.00
2013-8-19,71.7,71.2,70.8,56.5,55.5,54.0,60,58,55,29.81,29.79,5,0,5,0.00
2013-8-21,78.8,69.4,58.4,61.6,58.7,54.2,87,70,55,29.93,29.83,12,2,12,0.00
2013-8-22,75.3,65.6,59.9,60.4,57.4,55.4,86,76,59,29.97,29.88,14,2,14,0.00
2013-8-23,74.6,64.8,58.9,60.3,56.9,54.1,87,77,60,29.93,29.83,12,2,13,0.00
2013-8-24,79.3,66.3,53.1,62.3,57.2,49.0,88,74,53,29.92,29.85,14,2,14,0.00
2013-8-25,87.5,69.7,61.9,65.9,60.9,57.1,88,75,39,29.95,29.87,13,1,13,0.00
2013-8-26,76.3,67.3,59.7,61.7,57.3,50.6,86,71,50,30.00,29.90,12,1,12,0.00
2013-8-27,80.5,66.8,53.9,62.9,56.3,48.3,89,70,51,29.92,29.82,13,1,13,0.00
2013-8-28,80.8,67.8,56.8,65.3,60.1,52.6,92,78,58,29.95,29.86,13,2,13,0.00
2013-8-29,80.7,69.8,62.9,66.2,62.4,59.6,92,79,57,30.05,29.95,12,1,13,0.00
2013-8-30,89.0,72.1,59.3,64.7,60.9,56.6,96,71,40,30.04,29.91,12,1,13,0.00
2013-8-31,79.8,68.7,57.4,63.7,58.8,50.9,87,72,52,29.98,29.89,11,1,12,0.00
2013-9-1,82.7,69.5,59.9,62.9,59.7,56.3,89,73,45,29.95,29.87,13,1,13,0.00
2013-9-2,81.5,70.3,64.6,66.4,62.8,60.4,90,78,57,29.96,29.88,14,1,14,0.00
2013-9-3,78.4,68.5,56.9,61.5,56.3,52.7,88,68,45,30.00,29.92,14,2,15,0.00
2013-9-4,80.0,67.1,56.0,60.3,55.4,50.9,85,68,44,30.04,29.94,16,2,16,0.00
2013-9-5,80.3,66.9,55.6,58.7,54.9,50.3,91,68,43,30.02,29.95,17,2,19,0.00
2013-9-6,90.5,71.4,52.8,58.4,52.9,47.3,85,56,30,30.00,29.81,12,1,12,0.00
2013-9-7,95.8,77.0,62.5,61.1,53.9,48.1,68,48,25,29.87,29.77,14,1,14,0.00
2013-9-8,90.3,72.2,57.8,63.8,58.5,51.6,90,65,39,29.86,29.74,8,1,10,0.00
2013-9-9,91.7,72.6,59.0,65.5,59.6,52.9,89,66,39,29.81,29.69,10,1,10,0.00
2013-9-10,82.9,68.2,58.4,62.8,57.5,52.3,91,70,48,29.89,29.73,10,1,11,0.00
2013-9-11,76.4,65.3,54.7,61.2,56.6,50.8,90,74,55,29.98,29.88,11,1,11,0.00
2013-9-12,77.7,67.2,62.6,63.9,59.8,57.6,89,78,60,29.97,29.88,11,1,12,0.00
2013-9-13,77.0,65.6,59.7,62.7,58.7,55.9,89,79,60,29.92,29.78,11,1,11,0.00
2013-9-14,73.2,63.3,58.3,61.1,57.1,54.7,89,81,66,29.84,29.76,10,1,11,0.00
2013-9-15,78.6,65.9,57.2,61.3,57.4,52.7,89,76,54,29.88,29.80,13,1,13,0.00
2013-9-16,80.9,67.6,57.7,63.8,57.9,52.6,91,73,47,29.90,29.80,12,1,13,0.00
2013-9-17,75.3,63.7,54.6,56.6,52.9,49.6,91,70,42,29.89,29.85,20,3,20,0.00
2013-9-18,83.5,71.3,55.1,56.4,50.6,42.0,85,51,24,29.91,29.81,14,2,15,0.00
2013-9-19,89.0,68.4,51.7,56.3,49.1,42.8,84,55,24,29.85,29.73,11,1,11,0.00
2013-9-20,77.5,64.2,51.0,60.5,52.8,40.0,79,67,53,29.87,29.77,15,2,16,0.00
2013-9-21,66.8,61.9,53.5,59.5,56.2,50.4,92,82,69,29.91,29.81,16,2,19,0.15
2013-9-22,72.8,60.7,51.1,56.2,51.9,48.8,95,75,48,30.02,29.90,15,2,18,0.01
2013-9-23,81.4,65.5,52.3,61.8,54.2,48.8,91,70,41,30.02,29.92,13,1,13,0.00
2013-9-24,76.3,64.3,55.0,57.6,52.8,49.1,90,69,43,30.00,29.92,18,3,22,0.00
2013-9-28,83.7,71.5,53.8,55.7,46.7,38.0,83,46,20,30.09,29.98,12,1,12,0.00
2013-9-29,77.0,64.1,53.5,60.3,55.2,48.6,88,74,54,30.11,30.04,13,1,13,0.00
2013-9-30,77.1,64.9,55.8,62.6,57.7,52.8,92,79,58,30.08,29.96,12,1,14,0.00
2013-10-1,74.0,61.0,49.9,53.7,49.4,43.7,86,67,45,30.02,29.92,13,1,13,0.00
2013-10-2,78.0,60.9,50.1,55.7,49.0,40.4,92,67,39,30.02,29.92,12,1,13,0.00
2013-10-3,72.2,62.2,48.5,45.6,39.2,33.6,76,46,27,30.07,29.94,18,3,18,0.00
2013-10-4,79.3,67.2,53.0,38.1,35.1,31.9,52,31,21,30.09,29.97,17,3,17,0.00
2013-10-5,85.1,67.9,53.1,40.4,35.7,32.2,47,32,18,30.19,30.09,10,1,10,0.00
2013-10-6,86.1,67.8,52.1,45.5,38.8,33.1,53,36,21,30.11,29.99,10,1,11,0.00
2013-10-7,83.0,66.8,54.7,48.5,38.9,33.1,53,38,17,29.99,29.87,12,1,13,0.00
2013-10-8,76.6,60.3,46.9,51.1,43.1,34.0,82,55,33,29.90,29.73,11,1,11,0.00
2013-10-9,68.6,55.6,45.4,48.8,44.6,41.1,90,69,43,29.76,29.63,11,1,13,0.00
2013-10-10,74.5,58.5,46.4,51.2,45.8,39.6,83,65,38,30.01,29.76,10,1,12,0.00
2013-10-11,68.7,54.8,43.8,54.5,48.1,40.8,93,79,56,30.08,29.97,11,1,11,0.00
2013-10-12,72.9,56.4,45.0,55.1,47.6,42.7,94,75,49,30.01,29.90,11,1,11,0.00
2013-10-13,73.0,57.9,46.3,51.8,45.0,40.8,93,66,37,30.07,29.93,12,1,14,0.00
2013-10-14,77.5,61.6,47.7,46.5,41.5,38.7,75,51,29,30.11,29.99,14,1,14,0.00
2013-10-15,78.9,64.0,50.5,41.9,38.4,36.3,62,41,23,30.04,29.94,14,1,14,0.00
2013-10-16,82.8,65.1,51.3,44.0,38.7,34.7,60,40,23,30.08,29.99,7,1,11,0.00
2013-10-17,81.8,64.7,52.8,43.7,38.5,32.2,56,40,21,30.07,29.96,9,1,11,0.00
2013-10-18,80.9,62.3,47.4,51.9,43.8,32.3,86,54,28,30.05,29.97,11,0,11,0.00
2013-10-19,82.5,62.3,47.9,54.8,47.1,41.2,85,61,27,30.07,29.98,7,0,7,0.00
2013-10-20,78.7,59.9,48.5,56.9,49.7,42.3,94,71,41,30.03,29.90,7,0,9,0.00
2013-10-21,73.6,57.3,47.8,56.1,50.1,43.1,95,79,53,30.01,29.91,7,1,7,0.00
2013-10-22,74.9,57.7,47.8,57.3,50.8,45.2,96,80,51,30.02,29.91,7,0,7,0.01
2013-10-23,70.9,55.8,49.0,56.7,51.0,46.8,97,85,61,29.98,29.89,7,1,7,0.00
2013-10-24,61.0,53.4,48.2,51.8,49.2,45.3,95,86,71,30.12,29.97,7,1,9,0.00
2013-10-25,71.1,56.7,47.6,53.8,49.3,43.6,92,78,51,30.17,30.08,8,1,10,0.00
2013-10-26,78.0,59.1,46.0,55.1,47.9,42.1,95,69,37,30.15,30.01,10,0,10,0.00
2013-10-27,64.5,54.1,46.5,52.9,47.6,42.6,95,80,54,30.04,29.71,27,3,27,0.00
2013-10-28,60.7,55.3,52.1,48.8,46.3,44.7,83,72,57,29.86,29.69,20,4,23,0.00
2013-10-29,61.1,54.1,46.8,48.6,46.2,42.8,89,75,62,30.06,29.86,9,0,10,0.00
2013-10-30,66.4,53.3,42.7,49.9,45.0,40.3,95,76,49,30.15,30.05,11,1,11,0.00
2013-10-31,72.6,56.9,45.4,48.4,44.6,41.9,91,67,38,30.18,30.06,8,1,10,0.00
2013-11-1,76.3,59.5,46.9,49.4,44.6,41.1,83,61,35,30.14,30.00,6,0,6,0.00
2013-11-2,72.1,57.3,47.2,54.3,45.9,36.9,83,66,49,30.03,29.92,11,1,11,0.00
2013-11-3,63.8,52.7,43.9,43.3,37.0,29.9,87,59,29,30.05,29.92,14,1,14,0.00
2013-11-4,65.8,54.0,41.3,42.5,34.5,31.3,81,51,29,30.06,29.92,15,2,15,0.00
2013-11-5,71.7,58.9,47.0,39.1,34.9,31.1,56,42,28,30.22,30.06,12,1,12,0.00
2013-11-6,73.0,56.9,46.2,45.5,39.3,36.2,72,54,29,30.25,30.16,7,0,7,0.00
2013-11-17,63.5,53.1,46.3,49.2,45.8,43.2,90,77,59,30.09,30.00,10,0,10,0.01
2013-11-18,60.0,49.9,42.4,48.4,44.6,40.2,94,83,64,30.14,30.08,9,1,12,0.00
2013-11-19,64.3,54.5,46.0,54.2,49.7,42.6,95,85,66,30.11,29.96,9,0,9,0.24
2013-11-20,63.0,55.9,50.5,58.8,53.5,49.1,97,92,79,29.95,29.85,11,0,14,0.30
2013-11-21,59.4,52.3,45.6,50.2,40.6,29.0,96,68,34,30.00,29.89,15,2,16,0.01
2013-11-22,66.6,53.2,42.8,34.4,27.9,18.3,69,40,21,30.04,29.90,10,2,11,0.00
2013-11-23,65.3,51.2,40.8,45.0,37.8,33.4,85,63,35,30.11,29.96,6,0,6,0.00
2013-11-24,64.5,50.8,40.2,45.5,40.5,35.4,85,70,44,30.25,30.10,7,1,7,0.00
2013-11-25,64.9,51.6,41.8,46.0,41.6,37.6,89,70,49,30.32,30.24,6,0,7,0.00
2013-11-26,62.6,51.6,42.6,47.0,42.5,36.6,83,72,56,30.26,30.03,6,0,6,0.00
2013-11-27,65.6,52.7,42.6,49.3,44.3,39.5,92,75,54,30.03,29.83,7,0,9,0.00
2013-11-28,68.5,54.1,45.8,47.8,43.8,41.0,85,70,46,30.09,29.86,12,0,12,0.00
2013-11-29,70.9,55.3,45.8,47.5,42.2,36.5,80,63,38,30.22,30.08,6,0,7,0.00
2013-11-30,66.9,52.6,42.7,49.6,41.6,35.8,81,67,47,30.26,30.18,8,0,8,0.00
2013-12-1,70.1,54.5,42.9,48.7,43.5,38.9,88,69,42,30.34,30.21,10,0,10,0.00
2013-12-2,64.5,52.3,43.7,52.2,46.3,39.4,91,80,64,30.23,29.98,7,0,7,0.00
2013-12-3,53.5,49.4,42.2,50.0,39.2,28.6,93,69,49,29.98,29.84,16,3,18,0.00
2013-12-4,50.8,42.6,34.4,31.0,25.2,20.6,73,52,32,30.08,29.93,9,1,12,0.00
2013-12-5,50.4,39.0,30.2,26.2,20.6,16.5,71,49,29,30.18,30.08,8,1,9,0.00
2013-12-6,52.6,42.4,30.7,46.1,33.8,22.4,92,73,48,30.20,29.93,20,2,20,0.25
2013-12-7,49.9,43.0,33.4,46.2,32.1,25.0,91,67,43,30.24,29.92,22,4,26,0.23
2013-12-8,44.9,36.4,30.5,30.9,25.6,19.8,91,66,43,30.33,30.22,11,1,12,0.00
2013-12-9,49.6,38.6,29.2,26.0,20.6,14.6,72,50,33,30.41,30.31,12,1,12,0.00
2013-12-10,52.0,38.6,28.2,32.4,27.6,23.1,82,66,43,30.41,30.21,9,1,9,0.00
2013-12-11,55.4,42.3,33.3,34.4,30.1,27.0,80,64,39,30.25,30.17,7,1,7,0.00
2013-12-12,59.3,43.7,33.0,37.1,31.6,27.8,82,65,38,30.27,30.16,6,1,6,0.00
2013-12-13,60.2,44.8,34.5,44.8,34.3,29.6,87,69,38,30.34,30.23,14,1,14,0.00
2013-12-14,60.7,46.7,36.7,42.1,36.2,32.6,86,69,42,30.39,30.30,9,1,9,0.00
2013-12-15,62.0,47.0,36.4,41.5,36.1,31.5,83,68,44,30.36,30.24,6,0,6,0.00
2013-12-16,68.0,50.7,40.2,42.8,36.5,32.3,74,60,37,30.25,30.12,5,0,5,0.00
2013-12-17,64.9,52.2,41.9,45.6,39.2,33.9,76,63,42,30.17,30.03,4,0,4,0.00
2013-12-18,62.6,51.0,42.4,46.2,41.8,37.4,90,72,48,30.03,29.79,6,0,7,0.00
2013-12-19,57.3,48.3,40.6,44.0,36.5,23.8,92,66,42,29.93,29.73,13,2,13,0.00
2013-12-20,60.5,46.5,35.9,27.4,21.1,9.9,62,40,15,30.02,29.92,11,1,14,0.00
2013-12-21,61.9,48.6,39.8,48.7,39.6,27.5,90,72,55,30.08,29.97,11,1,12,0.00
2013-12-22,67.0,52.9,40.9,46.1,39.5,37.1,95,64,35,30.29,30.08,12,1,12,0.00
2013-12-23,64.0,50.6,40.9,45.6,40.7,36.7,87,70,50,30.38,30.28,8,0,8,0.00
2013-12-24,69.2,54.1,41.8,45.2,38.7,31.8,82,58,38,30.34,30.20,13,1,13,0.00
2013-12-25,66.5,51.8,41.9,44.1,38.2,33.5,76,61,43,30.29,30.18,6,1,7,0.00
2013-12-26,67.9,51.4,40.1,45.9,38.4,32.3,79,63,42,30.25,30.15,5,0,5,0.00
2013-12-27,61.8,49.4,39.8,44.2,37.5,31.0,83,64,51,30.23,30.11,4,0,5,0.00
2013-12-28,65.9,50.1,37.3,39.2,32.0,29.0,88,53,28,30.15,30.03,13,1,14,0.00
2013-12-29,67.0,56.2,45.0,34.3,26.8,20.5,54,34,21,30.17,30.08,10,2,11,0.00
2013-12-30,67.1,49.9,38.2,38.8,31.8,27.4,68,51,32,30.26,30.16,5,0,6,0.00
2013-12-31,60.8,46.8,36.0,45.4,34.8,26.0,80,63,48,30.27,30.13,11,0,11,0.00
2014-1-1,65.3,49.7,37.9,43.1,34.2,27.5,76,56,33,30.21,30.12,8,0,10,0.00
2014-1-2,65.7,51.2,40.9,41.3,36.4,32.5,77,58,36,30.17,30.05,7,0,9,0.00